TimeEDT,TemperatureF,Dew PointF,Humidity,Sea Level PressureIn,VisibilityMPH,Wind Direction,Wind SpeedMPH,Gust SpeedMPH,PrecipitationIn,Events,Conditions,WindDirDegrees,DateUTC
12:15 AM,71.6,59.0,64,30.15,-9999.0,NE,11.5,-,N/A,,Clear,40,2013-09-19 04:15:00
12:35 AM,71.6,59.0,64,30.15,-9999.0,NE,9.2,-,N/A,,Clear,40,2013-09-19 04:35:00
12:55 AM,71.6,60.8,69,30.14,-9999.0,NE,6.9,-,N/A,,Clear,50,2013-09-19 04:55:00
1:15 AM,71.6,60.8,69,30.14,-9999.0,NE,9.2,-,N/A,,Clear,40,2013-09-19 05:15:00
1:35 AM,69.8,60.8,73,30.14,-9999.0,NNE,8.1,-,N/A,,Clear,30,2013-09-19 05:35:00
1:55 AM,69.8,62.6,78,30.13,-9999.0,NNE,6.9,-,N/A,,Clear,30,2013-09-19 05:55:00
2:15 AM,69.8,60.8,73,30.13,-9999.0,NNE,6.9,-,N/A,,Clear,30,2013-09-19 06:15:00
2:35 AM,69.8,62.6,78,30.12,-9999.0,North,5.8,-,N/A,,Clear,10,2013-09-19 06:35:00
2:55 AM,68.0,60.8,78,30.12,-9999.0,North,4.6,-,N/A,,Clear,10,2013-09-19 06:55:00
3:15 AM,68.0,60.8,78,30.11,-9999.0,North,5.8,-,N/A,,Clear,10,2013-09-19 07:15:00
3:35 AM,68.0,60.8,78,30.11,-9999.0,NNE,5.8,-,N/A,,Clear,20,2013-09-19 07:35:00
3:55 AM,68.0,60.8,78,30.11,-9999.0,NNE,5.8,-,N/A,,Scattered Clouds,30,2013-09-19 07:55:00
4:15 AM,69.8,60.8,73,30.11,-9999.0,NNE,5.8,-,N/A,,Overcast,20,2013-09-19 08:15:00
4:35 AM,68.0,60.8,78,30.11,-9999.0,NNE,5.8,-,N/A,,Scattered Clouds,20,2013-09-19 08:35:00
4:55 AM,68.0,60.8,78,30.11,-9999.0,NNE,6.9,-,N/A,,Clear,30,2013-09-19 08:55:00
5:15 AM,68.0,59.0,73,30.11,-9999.0,NNE,5.8,-,N/A,,Mostly Cloudy,20,2013-09-19 09:15:00
5:35 AM,68.0,59.0,73,30.11,-9999.0,NNE,5.8,-,N/A,,Mostly Cloudy,20,2013-09-19 09:35:00
5:55 AM,68.0,59.0,73,30.11,-9999.0,NNE,5.8,-,N/A,,Scattered Clouds,30,2013-09-19 09:55:00
6:15 AM,68.0,59.0,73,30.11,-9999.0,NNE,6.9,-,N/A,,Scattered Clouds,20,2013-09-19 10:15:00
6:35 AM,68.0,60.8,78,30.12,-9999.0,NNE,5.8,-,N/A,,Scattered Clouds,20,2013-09-19 10:35:00
6:55 AM,68.0,60.8,78,30.13,-9999.0,NNE,5.8,-,N/A,,Scattered Clouds,20,2013-09-19 10:55:00
7:15 AM,68.0,60.8,78,30.13,-9999.0,NE,9.2,-,N/A,,Scattered Clouds,40,2013-09-19 11:15:00
7:35 AM,68.0,60.8,78,30.13,-9999.0,NE,5.8,-,N/A,,Scattered Clouds,50,2013-09-19 11:35:00
7:55 AM,69.8,60.8,73,30.13,-9999.0,NE,8.1,-,N/A,,Scattered Clouds,50,2013-09-19 11:55:00
8:15 AM,69.8,62.6,78,30.14,-9999.0,NNE,9.2,-,N/A,,Scattered Clouds,30,2013-09-19 12:15:00
8:35 AM,71.6,62.6,73,30.14,-9999.0,NNE,10.4,-,N/A,,Mostly Cloudy,30,2013-09-19 12:35:00
8:55 AM,71.6,62.6,73,30.15,-9999.0,NNE,10.4,-,N/A,,Mostly Cloudy,30,2013-09-19 12:55:00
9:15 AM,73.4,62.6,69,30.15,-9999.0,NNE,9.2,-,N/A,,Mostly Cloudy,30,2013-09-19 13:15:00
9:35 AM,73.4,62.6,69,30.15,-9999.0,NNE,10.4,-,N/A,,Mostly Cloudy,30,2013-09-19 13:35:00
9:55 AM,75.2,64.4,69,30.15,-9999.0,NNE,9.2,-,N/A,,Clear,30,2013-09-19 13:55:00
10:15 AM,77.0,64.4,65,30.15,-9999.0,NNE,10.4,-,N/A,,Clear,30,2013-09-19 14:15:00
10:35 AM,77.0,64.4,65,30.15,-9999.0,NNE,10.4,-,N/A,,Clear,30,2013-09-19 14:35:00
10:55 AM,78.8,64.4,61,30.15,-9999.0,NNE,10.4,-,N/A,,Clear,30,2013-09-19 14:55:00
11:15 AM,78.8,66.2,65,30.16,-9999.0,NE,9.2,-,N/A,,Clear,40,2013-09-19 15:15:00
11:35 AM,78.8,68.0,69,30.15,-9999.0,NE,10.4,-,N/A,,Clear,40,2013-09-19 15:35:00
11:55 AM,78.8,66.2,65,30.15,-9999.0,NE,10.4,-,N/A,,Clear,40,2013-09-19 15:55:00
12:15 PM,80.6,68.0,65,30.15,-9999.0,NNE,8.1,-,N/A,,Scattered Clouds,30,2013-09-19 16:15:00
12:35 PM,78.8,68.0,69,30.15,-9999.0,NE,5.8,-,N/A,,Mostly Cloudy,40,2013-09-19 16:35:00
12:55 PM,78.8,64.4,61,30.14,-9999.0,NE,6.9,-,N/A,,Scattered Clouds,50,2013-09-19 16:55:00
1:15 PM,80.6,68.0,65,30.14,-9999.0,East,6.9,-,N/A,,Scattered Clouds,80,2013-09-19 17:15:00
1:35 PM,82.4,68.0,62,30.13,-9999.0,NNE,8.1,-,N/A,,Scattered Clouds,30,2013-09-19 17:35:00
1:55 PM,78.8,66.2,65,30.13,-9999.0,ENE,4.6,-,N/A,,Scattered Clouds,60,2013-09-19 17:55:00
2:15 PM,80.6,68.0,65,30.12,-9999.0,ENE,6.9,-,N/A,,Scattered Clouds,70,2013-09-19 18:15:00
2:35 PM,82.4,68.0,62,30.11,-9999.0,NE,6.9,-,N/A,,Mostly Cloudy,50,2013-09-19 18:35:00
2:55 PM,80.6,66.2,61,30.11,-9999.0,East,6.9,-,N/A,,Mostly Cloudy,80,2013-09-19 18:55:00
3:15 PM,82.4,68.0,62,30.10,-9999.0,ESE,5.8,-,N/A,,Scattered Clouds,110,2013-09-19 19:15:00
3:35 PM,82.4,66.2,58,30.09,-9999.0,East,4.6,-,N/A,,Scattered Clouds,100,2013-09-19 19:35:00
3:55 PM,82.4,68.0,62,30.08,-9999.0,East,4.6,-,N/A,,Scattered Clouds,80,2013-09-19 19:55:00
4:15 PM,82.4,68.0,62,30.08,-9999.0,East,9.2,-,N/A,,Scattered Clouds,100,2013-09-19 20:15:00
4:35 PM,78.8,68.0,69,30.08,-9999.0,ESE,4.6,-,N/A,,Scattered Clouds,120,2013-09-19 20:35:00
4:55 PM,80.6,69.8,70,30.08,-9999.0,East,6.9,-,N/A,,Mostly Cloudy,100,2013-09-19 20:55:00
5:15 PM,80.6,69.8,70,30.08,-9999.0,East,4.6,-,N/A,,Scattered Clouds,100,2013-09-19 21:15:00
5:35 PM,78.8,68.0,69,30.08,-9999.0,SE,4.6,-,N/A,,Scattered Clouds,130,2013-09-19 21:35:00
5:55 PM,78.8,68.0,69,30.08,-9999.0,ESE,4.6,-,N/A,,Scattered Clouds,120,2013-09-19 21:55:00
6:15 PM,78.8,68.0,69,30.09,-9999.0,SE,4.6,-,N/A,,Clear,130,2013-09-19 22:15:00
6:35 PM,77.0,68.0,74,30.09,-9999.0,ESE,3.5,-,N/A,,Scattered Clouds,120,2013-09-19 22:35:00
6:55 PM,77.0,68.0,74,30.09,-9999.0,SE,3.5,-,N/A,,Scattered Clouds,130,2013-09-19 22:55:00
7:15 PM,77.0,68.0,74,30.09,-9999.0,ESE,3.5,-,N/A,,Clear,120,2013-09-19 23:15:00
7:35 PM,75.2,68.0,78,30.09,-9999.0,Calm,Calm,-,N/A,,Clear,0,2013-09-19 23:35:00
7:55 PM,73.4,68.0,83,30.09,-9999.0,Calm,Calm,-,N/A,,Clear,0,2013-09-19 23:55:00
8:15 PM,73.4,68.0,83,30.09,-9999.0,Calm,Calm,-,N/A,,Clear,0,2013-09-20 00:15:00
8:35 PM,71.6,68.0,88,30.09,-9999.0,Calm,Calm,-,N/A,,Unknown,0,2013-09-20 00:35:00
8:55 PM,71.6,68.0,88,30.10,-9999.0,Calm,Calm,-,N/A,,Unknown,0,2013-09-20 00:55:00
9:15 PM,71.6,69.8,94,30.10,-9999.0,Calm,Calm,-,N/A,,Unknown,0,2013-09-20 01:15:00
9:35 PM,71.6,69.8,94,30.10,-9999.0,Calm,Calm,-,N/A,,Unknown,0,2013-09-20 01:35:00
9:55 PM,71.6,69.8,94,30.09,-9999.0,Calm,Calm,-,N/A,,Unknown,0,2013-09-20 01:55:00
10:15 PM,71.6,69.8,94,30.09,-9999.0,Calm,Calm,-,N/A,,Unknown,0,2013-09-20 02:15:00
10:35 PM,71.6,69.8,94,30.09,-9999.0,Calm,Calm,-,N/A,,Unknown,0,2013-09-20 02:35:00
10:55 PM,71.6,69.8,94,30.09,-9999.0,Calm,Calm,-,N/A,,Unknown,0,2013-09-20 02:55:00
11:15 PM,71.6,69.8,94,30.09,-9999.0,Calm,Calm,-,N/A,,Unknown,0,2013-09-20 03:15:00
11:35 PM,69.8,69.8,100,30.08,-9999.0,Calm,Calm,-,N/A,,Unknown,0,2013-09-20 03:35:00
11:55 PM,69.8,69.8,100,30.08,-9999.0,Calm,Calm,-,N/A,,Unknown,0,2013-09-20 03:55:00